Theta_e
303 306 307 305 305 308 311 313 315 315 316 316 316 316 317 317 316 316 316 315 315 314 313 312 312 311 310 311 311 311 311 311 310 312 312 312 312 312 312 311 310 309 308
302 302 305 305 305 303 303 306 310 312 314 315 316 316 316 316 317 316 316 316 315 315 315 313 313 311 311 310 310 311 310 310 310 311 311 312 312 312 312 312 311 310 309
302 302 302 304 304 302 302 303 304 306 310 312 314 315 316 316 317 317 317 316 315 315 315 314 314 312 311 311 310 310 310 310 310 310 311 311 311 312 311 311 311 311 310
301 301 301 302 303 302 302 302 302 302 304 305 307 311 313 315 316 316 316 316 315 315 315 314 315 313 312 311 310 310 310 310 310 309 309 310 310 310 310 310 310 310 310
301 300 301 302 302 302 301 302 301 302 302 303 303 304 309 311 313 315 315 316 316 315 315 314 314 314 313 314 311 310 310 310 309 308 309 309 308 308 309 310 308 309 310
300 300 301 301 302 301 300 301 301 301 302 303 303 303 305 309 311 312 314 315 315 314 314 314 314 314 312 312 312 311 311 310 309 309 309 309 309 309 309 309 308 306 305
300 300 300 301 301 301 300 301 301 301 302 302 303 303 304 304 304 305 310 312 314 314 314 313 313 313 313 312 312 312 311 311 311 310 309 309 309 310 310 307 308 308 308
299 299 300 300 300 300 300 301 301 301 301 302 302 303 303 303 303 304 306 310 311 313 314 314 313 313 313 312 312 312 312 313 313 312 311 310 310 310 310 310 309 308 307
298 298 299 299 299 300 300 300 301 301 301 301 302 302 303 303 303 304 305 307 310 311 312 313 313 313 313 313 311 310 310 311 312 312 313 313 312 311 310 310 307 305 302
297 298 298 299 299 299 299 300 300 300 300 300 301 301 302 303 303 303 304 306 308 309 310 311 312 312 313 313 311 311 310 310 310 311 312 313 313 312 312 310 309 306 304
294 296 297 298 298 299 299 299 300 300 300 300 301 301 301 302 303 303 303 304 306 308 310 310 311 311 312 312 312 311 311 311 311 311 310 311 311 312 312 311 310 308 307
293 293 294 295 295 296 297 298 299 299 299 300 300 301 301 302 302 302 303 302 303 306 308 309 309 309 310 312 312 312 312 312 311 311 309 309 310 310 310 310 310 308 308
291 292 292 292 293 294 294 296 298 298 299 300 300 300 301 302 302 302 302 301 302 304 305 305 305 306 306 307 309 312 312 312 311 311 311 309 309 309 310 310 309 308 306
292 292 293 293 294 294 295 295 296 297 297 298 299 300 301 302 301 301 301 301 301 302 303 304 304 305 306 307 307 309 311 312 311 311 311 311 310 309 308 308 306 307 304
289 290 290 290 291 293 293 294 295 296 297 298 298 298 299 300 300 300 300 301 302 303 303 304 304 304 305 306 307 308 309 310 310 311 310 310 310 308 306 307 306 302 302
288 288 288 289 289 290 291 291 292 293 294 294 295 296 296 297 298 299 300 299 300 300 302 303 304 304 305 305 306 307 308 308 308 309 309 310 309 306 305 304 303 302 300
287 287 288 287 288 289 290 290 291 291 292 293 295 296 296 297 298 298 299 299 300 302 303 303 303 304 304 305 305 306 306 307 307 307 308 308 309 306 305 303 301 302 300
285 286 286 286 286 286 286 287 287 287 288 288 289 291 291 291 292 293 296 299 300 300 301 301 302 303 303 304 304 305 305 306 306 306 306 307 308 306 305 304 301 301 300
284 285 285 285 285 285 285 285 285 285 286 286 286 286 287 287 289 290 291 294 298 299 300 300 302 302 303 303 304 304 304 304 305 305 305 305 306 305 305 304 302 301 300
283 284 284 284 284 284 284 284 284 284 284 284 285 285 286 285 286 286 287 287 288 289 290 294 301 302 302 303 303 303 303 303 303 304 304 304 305 304 304 304 302 300 299
282 282 283 283 283 283 283 283 283 283 283 283 283 284 285 284 284 285 285 285 285 286 287 288 290 293 301 302 302 302 303 303 303 303 303 304 304 304 303 303 302 300 299
281 281 281 281 282 282 282 282 282 282 282 282 283 283 283 283 283 283 283 284 284 284 285 286 287 288 291 293 298 303 303 302 302 302 303 303 304 304 303 302 301 298 298
280 280 280 280 281 280 281 281 281 281 281 281 281 282 282 282 282 283 283 283 283 283 284 284 285 286 287 287 289 291 296 300 301 303 303 304 304 304 303 301 300 297 297
279 279 279 279 279 280 279 279 279 280 280 280 280 281 281 281 282 282 282 282 282 283 283 283 284 284 285 286 287 288 290 292 293 297 303 304 304 304 303 300 299 297 297
278 279 279 278 277 278 279 279 279 279 279 279 280 280 280 280 280 281 281 281 282 282 282 282 283 283 284 285 286 287 288 290 292 294 296 299 303 303 302 300 299 297 296
277 277 277 278 277 277 277 278 278 278 278 278 279 279 279 279 280 280 280 281 281 282 282 282 282 282 283 284 285 286 287 288 290 292 294 296 299 302 301 299 297 296 295
Wind_Speed
33 29 30 32 31 25 16 19 25 28 31 33 35 35 35 35 34 34 35 36 36 38 38 39 41 39 40 40 38 37 37 35 19 21 23 19 18 19 29 31 31 31 29
31 31 27 28 31 31 29 26 21 18 22 26 29 31 33 35 35 35 37 37 37 39 39 39 42 39 39 39 38 39 39 38 30 27 25 28 29 27 24 30 34 34 33
30 29 31 28 29 31 30 28 26 24 19 18 22 27 30 32 33 35 35 36 38 40 41 40 41 38 38 38 39 38 39 37 37 31 29 24 29 31 29 30 35 37 37
28 30 31 28 27 29 31 30 29 26 23 23 20 20 25 29 31 32 34 36 36 38 40 41 41 40 39 39 38 39 37 34 34 31 30 28 25 30 31 33 35 39 42
26 32 28 27 26 29 31 31 31 29 27 25 24 21 19 21 27 30 33 35 37 38 39 40 40 42 42 43 36 36 37 33 29 26 26 25 24 23 27 33 34 36 41
27 30 29 29 29 30 33 31 33 31 30 30 28 25 24 20 20 23 30 35 35 36 37 38 39 39 40 41 44 42 40 37 32 29 29 27 31 32 31 37 33 24 10
30 30 29 28 31 31 33 32 32 32 31 32 31 28 28 27 24 23 21 26 34 35 37 37 35 36 38 38 40 43 46 47 46 38 35 34 31 36 42 33 37 31 32
32 32 31 29 33 33 32 32 30 32 32 32 32 30 30 31 29 26 25 22 24 29 35 38 38 36 36 37 38 41 42 44 46 46 45 41 40 38 38 41 39 36 36
26 27 29 30 32 32 33 34 31 31 32 33 32 32 32 33 31 28 27 26 23 24 27 31 36 38 38 38 39 38 37 39 40 43 49 49 46 43 38 36 28 25 14
24 27 28 30 31 30 32 32 33 32 32 32 33 32 32 31 30 29 28 28 27 26 25 25 27 32 36 38 40 36 34 34 32 36 40 46 49 48 44 43 35 30 20
30 27 28 28 29 27 29 32 33 34 32 34 34 34 31 28 30 30 29 28 25 25 22 24 25 26 29 33 39 39 38 36 34 37 38 36 37 39 41 43 47 42 31
28 30 28 28 30 31 30 30 32 31 31 28 27 27 26 27 25 29 32 31 30 27 24 24 27 28 29 31 35 41 43 43 36 31 28 29 30 33 35 41 47 47 48
28 27 30 29 27 27 29 30 27 26 24 23 23 22 24 23 25 26 28 31 32 29 27 29 31 29 31 31 30 31 37 36 32 30 29 29 30 33 35 37 40 43 41
24 24 24 26 28 25 24 25 25 25 25 26 25 26 26 26 27 28 29 33 35 31 30 29 31 33 32 31 30 30 31 31 30 31 31 31 30 29 33 34 32 38 34
23 23 23 25 25 26 27 27 26 24 23 27 28 29 28 29 29 35 39 37 34 35 38 34 27 23 25 24 27 28 28 29 28 30 30 28 28 30 30 33 32 26 26
22 22 22 23 22 23 24 28 27 28 30 32 32 32 34 34 35 35 36 42 42 40 35 27 24 21 21 21 21 24 26 26 28 28 27 27 25 27 26 26 30 26 24
23 22 22 23 23 23 23 23 26 29 26 26 27 28 31 33 36 37 37 38 39 35 27 23 21 20 22 22 23 23 23 25 27 28 26 26 25 25 25 25 26 26 24
24 23 23 22 23 23 23 23 23 24 26 28 27 28 30 36 38 37 38 36 30 26 25 25 24 23 23 23 23 23 25 26 26 27 25 25 24 24 22 23 25 25 23
22 23 23 23 22 24 24 24 24 25 25 27 31 32 34 38 30 29 32 29 25 25 27 26 25 24 24 25 26 27 25 24 25 25 24 24 24 24 25 25 25 28 26
21 21 21 22 22 22 23 24 23 24 25 26 27 30 36 33 31 30 29 28 29 29 31 31 30 27 26 26 27 27 26 24 24 24 25 24 24 25 26 25 25 23 26
17 20 21 20 20 22 22 24 24 25 25 26 27 31 36 31 29 29 29 30 31 31 32 32 33 34 30 26 28 27 25 25 24 24 25 25 24 24 24 25 25 27 26
17 18 19 21 20 21 22 21 23 23 25 26 28 31 34 31 32 32 32 33 33 33 32 33 32 31 33 34 32 23 21 24 27 27 26 26 25 26 25 25 24 25 26
15 17 18 19 18 20 20 21 22 23 24 26 28 29 31 31 31 32 34 35 36 36 35 35 34 36 37 37 34 32 32 32 31 30 29 27 26 26 26 26 26 24 25
12 14 16 17 18 18 19 21 22 24 25 25 26 27 30 32 32 33 35 35 36 37 36 36 35 38 40 41 38 36 35 35 37 34 31 31 29 28 28 27 26 28 27
11 12 14 15 18 18 19 20 20 22 23 24 23 26 28 30 31 33 34 35 36 36 38 37 36 41 41 41 45 46 42 38 34 32 31 29 29 29 29 28 27 27 27
12 12 13 14 16 17 18 19 20 22 22 24 24 25 27 28 30 33 34 37 38 37 37 36 38 42 41 40 46 49 49 43 38 32 27 26 24 28 27 27 27 26 27
Wind_Direction
28 28 30 29 29 28 356 309 291 288 283 279 275 271 267 265 263 261 261 260 258 259 257 256 257 256 254 253 251 249 246 237 240 257 251 251 243 236 230 232 232 235 238
19 22 22 22 21 21 19 14 3 319 299 289 285 281 276 272 268 264 262 261 258 258 258 256 258 256 254 253 252 250 246 243 232 252 256 247 247 243 239 235 233 235 238
13 13 14 12 11 11 10 10 12 7 355 324 302 290 283 278 273 270 266 263 260 261 260 257 260 254 249 249 249 245 246 243 241 240 253 260 250 245 241 239 237 238 240
7 6 4 4 3 2 2 3 4 4 4 1 347 315 295 288 282 277 271 267 263 261 261 259 260 256 252 251 246 246 244 239 236 232 244 249 244 239 242 243 240 239 240
355 358 357 356 355 355 356 356 357 357 357 354 353 349 331 304 288 278 274 270 267 267 264 261 260 261 260 261 245 243 242 232 229 229 236 240 233 225 228 238 238 244 244
350 350 349 350 349 349 351 349 349 349 350 349 348 347 345 339 322 299 276 271 271 266 262 265 264 264 260 259 259 250 249 233 228 224 232 230 234 232 235 233 233 225 250
343 344 344 345 344 343 344 344 344 344 343 342 342 342 339 335 335 330 314 289 269 262 263 263 260 261 263 260 261 256 251 244 242 237 233 232 233 232 241 227 226 230 233
333 335 336 338 338 336 336 338 338 339 336 334 335 335 334 331 331 329 325 313 294 276 264 262 262 260 259 259 259 257 252 248 242 241 242 246 245 243 240 241 241 236 239
329 331 329 329 329 329 328 330 330 331 332 330 329 327 330 328 331 332 331 325 315 300 288 276 267 262 264 260 252 247 249 249 251 249 250 248 247 246 245 237 220 212 230
341 334 330 326 324 321 322 323 323 323 324 323 321 323 323 324 328 333 332 329 319 314 309 296 284 273 271 265 253 246 248 251 249 249 248 250 250 245 243 237 230 218 223
324 323 324 325 325 322 316 319 317 317 315 315 315 319 319 320 324 326 328 324 316 309 302 297 297 293 282 272 264 250 248 255 251 249 247 244 244 239 233 232 233 228 227
320 319 316 315 312 311 312 313 312 310 307 305 304 306 308 310 316 319 322 321 320 309 303 303 302 303 299 286 275 266 264 259 252 250 243 238 234 232 231 228 233 231 234
314 313 313 312 313 310 309 307 305 307 305 302 302 301 303 300 309 312 314 315 314 307 303 303 305 304 301 297 289 281 271 257 250 248 246 243 239 237 237 234 233 236 235
323 320 316 313 311 314 312 310 305 305 305 303 301 301 302 301 304 307 308 309 308 304 302 301 302 300 298 294 291 284 273 258 246 245 248 249 244 233 225 223 219 225 226
325 323 322 316 314 315 311 305 300 302 304 311 313 312 312 306 302 303 301 300 298 299 301 300 300 295 289 286 287 287 281 268 249 247 248 249 243 226 218 214 215 211 217
333 331 325 326 324 321 321 320 315 309 308 305 302 299 299 296 301 302 301 301 296 296 294 292 290 286 280 279 275 276 279 272 259 251 247 245 240 221 217 209 209 211 213
346 344 349 347 342 337 332 329 330 333 331 329 320 313 310 306 309 308 303 304 303 304 288 286 282 279 281 279 276 272 267 273 278 262 253 248 242 227 216 212 209 212 215
357 358 356 353 349 352 351 349 347 345 342 344 347 343 338 334 330 325 322 307 303 290 285 286 282 279 280 277 277 277 277 276 273 267 257 250 241 225 220 218 211 215 215
0 1 4 357 1 3 1 0 356 356 353 349 350 355 355 347 343 347 348 343 314 298 291 283 279 277 276 277 280 285 283 277 273 266 261 254 247 229 230 222 216 213 211
1 5 8 1 3 3 7 5 360 2 357 354 354 350 353 357 359 356 352 348 349 341 333 333 308 289 285 277 282 283 283 280 273 267 265 261 255 242 234 226 215 208 210
360 3 6 1 7 5 8 6 359 1 358 356 355 355 1 0 356 355 351 351 348 341 338 331 331 328 316 292 285 279 275 275 275 275 271 267 256 240 238 233 220 211 210
3 0 0 1 4 4 5 3 1 359 357 355 351 353 358 359 357 356 354 352 348 347 345 341 338 336 335 333 324 285 275 283 286 281 272 263 257 248 235 224 221 209 207
4 0 0 356 359 3 2 3 360 0 357 355 353 353 354 353 354 354 353 352 351 349 348 348 346 346 342 339 332 322 315 297 282 274 268 260 253 245 233 223 218 209 207
4 360 358 357 357 2 0 360 357 356 354 351 352 352 351 350 349 349 351 349 351 351 351 349 349 347 346 347 340 335 324 312 308 304 274 259 254 245 231 222 217 213 209
7 357 356 355 356 354 357 356 352 351 352 350 349 348 347 346 347 347 347 348 347 347 349 350 349 348 346 347 350 347 341 338 323 306 297 281 258 243 229 222 219 211 208
5 2 354 352 352 353 351 344 346 347 346 345 346 345 345 344 345 345 345 346 345 345 344 345 347 348 349 349 350 353 353 347 341 333 314 297 272 245 231 220 217 209 203